Time,TemperatureF,DewpointF,PressureIn,WindDirection,WindDirectionDegrees,WindSpeedMPH,WindSpeedGustMPH,Humidity,HourlyPrecipIn,Conditions,Clouds,dailyrainin,SoftwareType,DateUTC
2013-09-26 00:00:00,62.3,61.4,29.93,North,11,0.0,2.0,97,0.00,,CLR,1.30,VWS V14.01,2013-09-26 04:00:00,
2013-09-26 00:01:00,62.3,61.4,29.93,North,11,0.0,0.0,97,0.00,,OVC023,0.00,VWS V14.01,2013-09-26 04:01:00,
2013-09-26 00:06:00,62.3,61.7,29.93,North,11,0.0,3.0,98,0.00,,OVC023,0.00,VWS V14.01,2013-09-26 04:06:00,
2013-09-26 00:11:00,62.2,61.6,29.92,North,11,0.0,3.0,98,0.00,,OVC023,0.00,VWS V14.01,2013-09-26 04:11:00,
2013-09-26 00:16:00,62.3,61.7,29.92,North,11,0.0,3.0,98,0.00,,OVC023,0.00,VWS V14.01,2013-09-26 04:16:00,
2013-09-26 00:21:00,62.3,61.7,29.92,North,11,0.0,3.0,98,0.00,,OVC023,0.00,VWS V14.01,2013-09-26 04:21:00,
2013-09-26 00:26:00,62.3,61.7,29.92,North,11,0.0,3.0,98,0.00,,OVC023,0.00,VWS V14.01,2013-09-26 04:26:00,
2013-09-26 00:30:00,62.3,61.7,29.92,North,5,0.0,3.0,98,0.00,,CLR,0.00,VWS V14.01,2013-09-26 04:30:00,
2013-09-26 00:31:00,62.2,61.6,29.92,North,5,0.0,0.0,98,0.00,,OVC023,0.00,VWS V14.01,2013-09-26 04:31:00,
2013-09-26 00:36:00,62.1,61.2,29.92,North,5,0.0,0.0,97,0.00,,,0.00,VWS V14.01,2013-09-26 04:36:00,
2013-09-26 00:41:00,62.1,61.5,29.93,North,5,0.0,0.0,98,0.00,,,0.00,VWS V14.01,2013-09-26 04:41:00,
2013-09-26 00:46:00,62.1,61.5,29.92,North,5,0.0,0.0,98,0.00,,,0.00,VWS V14.01,2013-09-26 04:46:00,
2013-09-26 00:51:00,62.2,61.6,29.92,North,5,0.0,0.0,98,0.00,,,0.00,VWS V14.01,2013-09-26 04:51:00,
2013-09-26 00:56:00,62.1,61.5,29.92,South,173,0.0,1.0,98,0.00,,,0.00,VWS V14.01,2013-09-26 04:56:00,
2013-09-26 01:00:00,62.1,61.5,29.92,South,173,0.0,1.0,98,0.00,,CLR,0.00,VWS V14.01,2013-09-26 05:00:00,
2013-09-26 01:01:00,62.1,61.5,29.92,South,173,0.0,0.0,98,0.00,,,0.00,VWS V14.01,2013-09-26 05:01:00,
2013-09-26 01:06:00,62.1,61.5,29.92,South,173,0.0,1.0,98,0.00,,,0.00,VWS V14.01,2013-09-26 05:06:00,
2013-09-26 01:11:00,62.1,61.5,29.92,South,173,0.0,1.0,98,0.00,,,0.00,VWS V14.01,2013-09-26 05:11:00,
2013-09-26 01:16:00,62.1,61.5,29.91,South,173,0.0,1.0,98,0.00,,,0.00,VWS V14.01,2013-09-26 05:16:00,
2013-09-26 01:21:00,62.0,61.4,29.91,South,173,0.0,1.0,98,0.00,,,0.00,VWS V14.01,2013-09-26 05:21:00,
2013-09-26 01:26:00,62.0,61.4,29.91,South,173,0.0,1.0,98,0.00,,,0.00,VWS V14.01,2013-09-26 05:26:00,
2013-09-26 01:30:00,62.0,61.4,29.91,South,173,0.0,1.0,98,0.00,,CLR,0.00,VWS V14.01,2013-09-26 05:30:00,
2013-09-26 01:31:00,61.9,61.3,29.92,South,173,0.0,0.0,98,0.00,,,0.00,VWS V14.01,2013-09-26 05:31:00,
2013-09-26 01:36:00,61.9,61.0,29.92,ESE,114,0.0,2.0,97,0.00,,OVC009,0.00,VWS V14.01,2013-09-26 05:36:00,
2013-09-26 01:41:00,61.8,61.2,29.92,ESE,114,0.0,2.0,98,0.00,,OVC009,0.00,VWS V14.01,2013-09-26 05:41:00,
2013-09-26 01:46:00,61.9,61.3,29.92,ESE,114,0.0,2.0,98,0.00,,OVC009,0.00,VWS V14.01,2013-09-26 05:46:00,
2013-09-26 01:51:00,61.9,61.3,29.91,ESE,114,0.0,2.0,98,0.00,,OVC009,0.00,VWS V14.01,2013-09-26 05:51:00,
2013-09-26 01:56:00,62.0,61.4,29.92,ESE,114,0.0,2.0,98,0.00,,OVC009,0.00,VWS V14.01,2013-09-26 05:56:00,
2013-09-26 02:00:00,61.9,61.3,29.91,North,5,0.0,4.0,98,0.00,,CLR,0.00,VWS V14.01,2013-09-26 06:00:00,
2013-09-26 02:01:00,61.9,61.3,29.91,East,79,0.0,0.0,98,0.00,,OVC009,0.00,VWS V14.01,2013-09-26 06:01:00,
2013-09-26 02:06:00,62.0,61.4,29.91,NNE,22,0.0,2.0,98,0.00,,OVC009,0.00,VWS V14.01,2013-09-26 06:06:00,
2013-09-26 02:11:00,61.9,61.3,29.92,NNE,22,0.0,2.0,98,0.00,,OVC009,0.00,VWS V14.01,2013-09-26 06:11:00,
2013-09-26 02:16:00,61.9,61.3,29.91,NNE,22,0.0,2.0,98,0.00,,OVC009,0.00,VWS V14.01,2013-09-26 06:16:00,
2013-09-26 02:21:00,61.9,61.3,29.91,NNE,22,0.0,2.0,98,0.00,,OVC009,0.00,VWS V14.01,2013-09-26 06:21:00,
2013-09-26 02:26:00,61.8,61.2,29.91,NNE,22,0.0,2.0,98,0.00,,OVC009,0.00,VWS V14.01,2013-09-26 06:26:00,
2013-09-26 02:30:00,61.8,60.9,29.92,NNE,22,0.0,2.0,97,0.00,,CLR,0.00,VWS V14.01,2013-09-26 06:30:00,
2013-09-26 02:31:00,61.8,60.9,29.92,NNE,17,0.0,3.0,97,0.00,,OVC009,0.00,VWS V14.01,2013-09-26 06:31:00,
2013-09-26 02:36:00,61.8,60.9,29.91,NNE,24,0.0,3.0,97,0.00,,OVC031,0.00,VWS V14.01,2013-09-26 06:36:00,
2013-09-26 02:41:00,61.7,60.8,29.91,NNE,26,0.0,3.0,97,0.00,,OVC031,0.00,VWS V14.01,2013-09-26 06:41:00,
2013-09-26 02:46:00,61.7,60.8,29.91,NNE,26,0.0,3.0,97,0.00,,OVC031,0.00,VWS V14.01,2013-09-26 06:46:00,
2013-09-26 02:51:00,61.7,60.8,29.91,NNE,26,0.0,3.0,97,0.00,,OVC031,0.00,VWS V14.01,2013-09-26 06:51:00,
2013-09-26 02:56:00,61.7,60.8,29.91,NNE,26,0.0,3.0,97,0.00,,OVC031,0.00,VWS V14.01,2013-09-26 06:56:00,
2013-09-26 03:00:00,61.7,61.1,29.91,NNE,26,0.0,3.0,98,0.00,,CLR,0.00,VWS V14.01,2013-09-26 07:00:00,
2013-09-26 03:01:00,61.7,60.8,29.91,NNE,26,0.0,0.0,97,0.00,,OVC031,0.00,VWS V14.01,2013-09-26 07:01:00,
2013-09-26 03:06:00,61.6,61.0,29.91,NNE,26,0.0,0.0,98,0.00,,OVC031,0.00,VWS V14.01,2013-09-26 07:06:00,
2013-09-26 03:11:00,61.5,60.6,29.92,NNE,26,0.0,0.0,97,0.00,,OVC031,0.00,VWS V14.01,2013-09-26 07:11:00,
2013-09-26 03:16:00,61.4,60.5,29.91,NNE,26,0.0,0.0,97,0.00,,OVC031,0.00,VWS V14.01,2013-09-26 07:16:00,
2013-09-26 03:21:00,61.3,60.4,29.91,NNE,26,0.0,0.0,97,0.00,,OVC031,0.00,VWS V14.01,2013-09-26 07:21:00,
2013-09-26 03:26:00,61.3,60.4,29.91,NNE,26,0.0,0.0,97,0.00,,OVC031,0.00,VWS V14.01,2013-09-26 07:26:00,
2013-09-26 03:30:00,61.2,60.3,29.91,NNE,26,0.0,0.0,97,0.00,,CLR,0.00,VWS V14.01,2013-09-26 07:30:00,
2013-09-26 03:31:00,61.2,60.3,29.91,NNE,26,0.0,0.0,97,0.00,,OVC031,0.00,VWS V14.01,2013-09-26 07:31:00,
2013-09-26 03:36:00,61.2,60.6,29.91,NNE,26,0.0,0.0,98,0.00,,OVC009,0.00,VWS V14.01,2013-09-26 07:36:00,
2013-09-26 03:41:00,61.2,60.6,29.91,NNE,26,0.0,0.0,98,0.00,,OVC009,0.00,VWS V14.01,2013-09-26 07:41:00,
2013-09-26 03:46:00,61.3,60.7,29.91,NNE,26,0.0,0.0,98,0.00,,OVC009,0.00,VWS V14.01,2013-09-26 07:46:00,
2013-09-26 03:51:00,61.3,60.7,29.91,NNE,26,0.0,0.0,98,0.00,,OVC032,0.00,VWS V14.01,2013-09-26 07:51:00,
2013-09-26 03:56:00,61.3,60.7,29.91,NNE,26,0.0,0.0,98,0.01,,OVC032,0.01,VWS V14.01,2013-09-26 07:56:00,
2013-09-26 04:00:00,61.3,60.7,29.91,NNE,26,0.0,0.0,98,0.01,,CLR,0.01,VWS V14.01,2013-09-26 08:00:00,
2013-09-26 04:01:00,61.2,60.6,29.91,NNE,26,0.0,0.0,98,0.01,,OVC032,0.01,VWS V14.01,2013-09-26 08:01:00,
2013-09-26 04:06:00,61.1,60.5,29.91,NNE,26,0.0,0.0,98,0.01,,OVC032,0.01,VWS V14.01,2013-09-26 08:06:00,
2013-09-26 04:11:00,61.0,60.4,29.91,NNE,26,0.0,0.0,98,0.01,,OVC032,0.01,VWS V14.01,2013-09-26 08:11:00,
2013-09-26 04:16:00,60.9,60.3,29.91,NNE,26,0.0,0.0,98,0.01,,OVC032,0.01,VWS V14.01,2013-09-26 08:16:00,
2013-09-26 04:21:00,60.7,60.1,29.91,NNE,26,0.0,0.0,98,0.01,,OVC032,0.01,VWS V14.01,2013-09-26 08:21:00,
2013-09-26 04:26:00,60.6,59.8,29.91,NNE,26,0.0,0.0,97,0.01,,OVC032,0.01,VWS V14.01,2013-09-26 08:26:00,
2013-09-26 04:30:00,60.5,59.7,29.91,NNE,26,0.0,0.0,97,0.01,,CLR,0.01,VWS V14.01,2013-09-26 08:30:00,
2013-09-26 04:31:00,60.4,59.5,29.91,NNE,26,0.0,0.0,97,0.01,,OVC032,0.01,VWS V14.01,2013-09-26 08:31:00,
2013-09-26 04:36:00,60.3,59.7,29.91,NNE,26,0.0,0.0,98,0.01,,OVC034,0.01,VWS V14.01,2013-09-26 08:36:00,
2013-09-26 04:41:00,60.2,59.6,29.91,NNE,26,0.0,0.0,98,0.01,,OVC034,0.01,VWS V14.01,2013-09-26 08:41:00,
2013-09-26 04:46:00,60.1,59.2,29.91,NNE,26,0.0,0.0,97,0.01,,OVC034,0.01,VWS V14.01,2013-09-26 08:46:00,
2013-09-26 04:51:00,60.0,59.2,29.91,NNE,26,0.0,0.0,97,0.01,,OVC034,0.01,VWS V14.01,2013-09-26 08:51:00,
2013-09-26 04:56:00,59.8,59.0,29.91,NNE,26,0.0,0.0,97,0.01,,OVC034,0.01,VWS V14.01,2013-09-26 08:56:00,
2013-09-26 05:00:00,59.7,58.8,29.91,NNE,26,0.0,0.0,97,0.01,,CLR,0.01,VWS V14.01,2013-09-26 09:00:00,
2013-09-26 05:01:00,59.6,58.8,29.91,NNE,26,0.0,0.0,97,0.00,,OVC034,0.01,VWS V14.01,2013-09-26 09:01:00,
2013-09-26 05:06:00,59.4,58.5,29.91,NNE,26,0.0,0.0,97,0.00,,OVC034,0.01,VWS V14.01,2013-09-26 09:06:00,
2013-09-26 05:11:00,59.3,58.5,29.92,NNE,26,0.0,0.0,97,0.00,,OVC034,0.01,VWS V14.01,2013-09-26 09:11:00,
2013-09-26 05:16:00,59.2,58.3,29.91,NNE,26,0.0,0.0,97,0.00,,OVC034,0.01,VWS V14.01,2013-09-26 09:16:00,
2013-09-26 05:21:00,59.1,58.5,29.91,NNE,26,0.0,0.0,98,0.00,,OVC034,0.01,VWS V14.01,2013-09-26 09:21:00,
2013-09-26 05:26:00,59.1,58.5,29.91,NNE,26,0.0,0.0,98,0.00,,OVC034,0.01,VWS V14.01,2013-09-26 09:26:00,
2013-09-26 05:30:00,59.0,58.4,29.91,NNE,26,0.0,0.0,98,0.00,,CLR,0.01,VWS V14.01,2013-09-26 09:30:00,
2013-09-26 05:31:00,59.0,58.4,29.92,NNE,26,0.0,0.0,98,0.00,,OVC034,0.01,VWS V14.01,2013-09-26 09:31:00,
2013-09-26 05:36:00,58.9,58.3,29.92,NNE,26,0.0,0.0,98,0.00,,,0.01,VWS V14.01,2013-09-26 09:36:00,
2013-09-26 05:41:00,58.7,58.1,29.92,NNE,26,0.0,0.0,98,0.00,,,0.01,VWS V14.01,2013-09-26 09:41:00,
2013-09-26 05:46:00,58.7,58.1,29.92,NNE,26,0.0,0.0,98,0.00,,,0.01,VWS V14.01,2013-09-26 09:46:00,
2013-09-26 05:51:00,58.6,58.0,29.92,NNE,26,0.0,0.0,98,0.00,,,0.01,VWS V14.01,2013-09-26 09:51:00,
2013-09-26 05:56:00,58.5,57.9,29.93,NNE,26,0.0,0.0,98,0.00,,,0.01,VWS V14.01,2013-09-26 09:56:00,
2013-09-26 06:00:00,58.5,57.9,29.93,NNE,26,0.0,0.0,98,0.00,,CLR,0.01,VWS V14.01,2013-09-26 10:00:00,
2013-09-26 06:01:00,58.5,57.9,29.93,NNE,26,0.0,0.0,98,0.00,,,0.01,VWS V14.01,2013-09-26 10:01:00,
2013-09-26 06:06:00,58.5,57.9,29.93,NNE,26,0.0,0.0,98,0.00,,,0.01,VWS V14.01,2013-09-26 10:06:00,
2013-09-26 06:11:00,58.4,57.8,29.93,NNE,26,0.0,0.0,98,0.00,,,0.01,VWS V14.01,2013-09-26 10:11:00,
2013-09-26 06:16:00,58.3,57.7,29.93,NNE,26,0.0,0.0,98,0.00,,,0.01,VWS V14.01,2013-09-26 10:16:00,
2013-09-26 06:21:00,58.3,57.7,29.94,NNE,26,0.0,0.0,98,0.00,,,0.01,VWS V14.01,2013-09-26 10:21:00,
2013-09-26 06:26:00,58.2,57.6,29.94,NNE,26,0.0,0.0,98,0.00,,,0.01,VWS V14.01,2013-09-26 10:26:00,
2013-09-26 06:30:00,58.2,57.6,29.94,NNE,26,0.0,0.0,98,0.00,,CLR,0.01,VWS V14.01,2013-09-26 10:30:00,
2013-09-26 06:31:00,58.1,57.5,29.94,NNE,26,0.0,0.0,98,0.00,,,0.01,VWS V14.01,2013-09-26 10:31:00,
2013-09-26 06:36:00,58.0,57.4,29.94,NNE,26,0.0,0.0,98,0.00,,,0.01,VWS V14.01,2013-09-26 10:36:00,
2013-09-26 06:41:00,57.8,57.2,29.94,NNE,26,0.0,0.0,98,0.00,,,0.01,VWS V14.01,2013-09-26 10:41:00,
2013-09-26 06:46:00,57.8,57.2,29.94,NNE,26,0.0,0.0,98,0.00,,,0.01,VWS V14.01,2013-09-26 10:46:00,
2013-09-26 06:51:00,57.8,57.2,29.94,NNE,26,0.0,0.0,98,0.00,,,0.01,VWS V14.01,2013-09-26 10:51:00,
2013-09-26 06:56:00,57.7,57.1,29.94,NNE,26,0.0,0.0,98,0.00,,,0.01,VWS V14.01,2013-09-26 10:56:00,
2013-09-26 07:00:00,57.6,57.0,29.94,NNE,26,0.0,0.0,98,0.00,,CLR,0.01,VWS V14.01,2013-09-26 11:00:00,
2013-09-26 07:01:00,57.6,57.0,29.94,NNE,26,0.0,0.0,98,0.00,,,0.01,VWS V14.01,2013-09-26 11:01:00,
2013-09-26 07:06:00,57.5,56.9,29.95,NNE,26,0.0,0.0,98,0.00,,,0.01,VWS V14.01,2013-09-26 11:06:00,
2013-09-26 07:11:00,57.4,56.8,29.95,NNE,26,0.0,0.0,98,0.00,,,0.01,VWS V14.01,2013-09-26 11:11:00,
2013-09-26 07:16:00,57.3,56.7,29.95,NNE,26,0.0,0.0,98,0.00,,,0.01,VWS V14.01,2013-09-26 11:16:00,
2013-09-26 07:20:00,57.2,56.6,29.95,NNE,26,0.0,0.0,98,0.00,,,0.01,VWS V14.01,2013-09-26 11:20:00,
2013-09-26 07:25:00,57.2,56.6,29.96,NNE,26,0.0,0.0,98,0.00,,,0.01,VWS V14.01,2013-09-26 11:25:00,
2013-09-26 07:30:00,57.1,56.5,29.96,NNE,26,0.0,0.0,98,0.00,,,0.01,VWS V14.01,2013-09-26 11:30:00,
2013-09-26 07:35:00,57.1,56.5,29.96,NNE,26,0.0,0.0,98,0.00,,,0.01,VWS V14.01,2013-09-26 11:35:00,
2013-09-26 07:40:00,57.2,56.6,29.96,NNE,26,0.0,0.0,98,0.00,,,0.01,VWS V14.01,2013-09-26 11:40:00,
2013-09-26 07:45:00,57.1,56.5,29.96,NNE,26,0.0,0.0,98,0.00,,,0.01,VWS V14.01,2013-09-26 11:45:00,
2013-09-26 07:50:00,57.1,56.5,29.96,NNE,26,0.0,0.0,98,0.00,,,0.01,VWS V14.01,2013-09-26 11:50:00,
2013-09-26 07:55:00,57.1,56.5,29.96,NNE,26,0.0,0.0,98,0.00,,,0.01,VWS V14.01,2013-09-26 11:55:00,
2013-09-26 08:00:00,57.1,56.5,29.97,NNE,26,0.0,0.0,98,0.00,,,0.01,VWS V14.01,2013-09-26 12:00:00,
2013-09-26 08:05:00,57.1,56.5,29.97,NNE,26,0.0,0.0,98,0.00,,,0.01,VWS V14.01,2013-09-26 12:05:00,
2013-09-26 08:10:00,57.1,56.5,29.97,NNE,26,0.0,0.0,98,0.00,,,0.01,VWS V14.01,2013-09-26 12:10:00,
2013-09-26 08:15:00,57.1,56.5,29.98,NNE,26,0.0,0.0,98,0.00,,,0.01,VWS V14.01,2013-09-26 12:15:00,
2013-09-26 08:20:00,57.3,57.0,29.98,NNE,26,0.0,0.0,99,0.00,,,0.01,VWS V14.01,2013-09-26 12:20:00,
2013-09-26 08:25:00,57.5,57.2,29.98,NNE,26,0.0,0.0,99,0.00,,,0.01,VWS V14.01,2013-09-26 12:25:00,
2013-09-26 08:30:00,57.7,57.4,29.98,NNE,26,0.0,0.0,99,0.00,,,0.01,VWS V14.01,2013-09-26 12:30:00,
2013-09-26 08:35:00,58.1,57.8,29.99,NNE,26,0.0,0.0,99,0.00,,,0.01,VWS V14.01,2013-09-26 12:35:00,
2013-09-26 08:40:00,58.5,58.2,29.99,NNE,26,0.0,0.0,99,0.00,,,0.01,VWS V14.01,2013-09-26 12:40:00,
2013-09-26 08:45:00,59.1,58.8,29.99,NNE,26,0.0,0.0,99,0.00,,,0.01,VWS V14.01,2013-09-26 12:45:00,
2013-09-26 08:50:00,59.7,59.4,29.99,NNE,26,0.0,0.0,99,0.00,,,0.01,VWS V14.01,2013-09-26 12:50:00,
2013-09-26 08:55:00,60.6,60.3,29.99,NNE,26,0.0,0.0,99,0.00,,,0.01,VWS V14.01,2013-09-26 12:55:00,
2013-09-26 09:00:00,61.4,61.1,29.99,NE,40,0.0,0.0,99,0.00,,,0.01,VWS V14.01,2013-09-26 13:00:00,
2013-09-26 09:05:00,61.7,61.4,30.00,NE,40,0.0,0.0,99,0.00,,,0.01,VWS V14.01,2013-09-26 13:05:00,
2013-09-26 09:10:00,61.9,61.6,30.00,SSE,161,0.0,2.0,99,0.00,,,0.01,VWS V14.01,2013-09-26 13:10:00,
2013-09-26 09:15:00,62.2,61.9,30.00,SSE,161,0.0,2.0,99,0.00,,,0.01,VWS V14.01,2013-09-26 13:15:00,
2013-09-26 09:20:00,62.3,62.0,30.00,SSE,161,0.0,2.0,99,0.00,,,0.01,VWS V14.01,2013-09-26 13:20:00,
2013-09-26 09:25:00,62.6,62.3,30.00,SSE,161,0.0,2.0,99,0.00,,,0.01,VWS V14.01,2013-09-26 13:25:00,
2013-09-26 09:30:00,63.2,62.9,30.00,SSE,161,0.0,0.0,99,0.00,,,0.01,VWS V14.01,2013-09-26 13:30:00,
2013-09-26 09:35:00,63.8,63.5,30.00,SSE,161,0.0,1.0,99,0.00,,,0.01,VWS V14.01,2013-09-26 13:35:00,
2013-09-26 09:40:00,64.3,63.1,30.01,NE,44,0.0,1.0,96,0.00,,,0.01,VWS V14.01,2013-09-26 13:40:00,
2013-09-26 09:45:00,65.2,63.7,30.01,NNE,26,1.0,2.0,95,0.00,,,0.01,VWS V14.01,2013-09-26 13:45:00,
2013-09-26 09:50:00,65.7,63.6,30.01,NNE,26,0.0,2.0,93,0.00,,,0.01,VWS V14.01,2013-09-26 13:50:00,
2013-09-26 09:55:00,65.5,62.8,30.01,ENE,65,0.0,3.0,91,0.00,,,0.01,VWS V14.01,2013-09-26 13:55:00,
2013-09-26 10:00:00,65.6,63.2,30.01,West,263,0.0,0.0,92,0.00,,,0.01,VWS V14.01,2013-09-26 14:00:00,
2013-09-26 10:05:00,65.7,62.7,30.01,WSW,238,0.0,3.0,90,0.00,,,0.01,VWS V14.01,2013-09-26 14:05:00,
2013-09-26 10:10:00,65.8,62.5,30.01,West,275,0.0,3.0,89,0.00,,,0.01,VWS V14.01,2013-09-26 14:10:00,
2013-09-26 10:15:00,66.0,63.3,30.01,NNE,30,0.0,3.0,91,0.00,,,0.01,VWS V14.01,2013-09-26 14:15:00,
2013-09-26 10:20:00,66.5,63.2,30.01,West,259,0.0,3.0,89,0.00,,,0.01,VWS V14.01,2013-09-26 14:20:00,
2013-09-26 10:25:00,67.0,63.0,30.01,South,179,0.0,4.0,87,0.00,,,0.01,VWS V14.01,2013-09-26 14:25:00,
2013-09-26 10:30:00,67.7,63.4,30.01,South,178,0.0,2.0,86,0.00,,,0.01,VWS V14.01,2013-09-26 14:30:00,
2013-09-26 10:35:00,68.0,64.0,30.01,South,190,0.0,2.0,87,0.00,,,0.01,VWS V14.01,2013-09-26 14:35:00,
2013-09-26 10:40:00,68.3,64.0,30.01,NNW,340,3.0,3.0,86,0.00,,,0.01,VWS V14.01,2013-09-26 14:40:00,
2013-09-26 10:45:00,68.3,62.9,30.01,NNE,30,0.0,3.0,83,0.00,,,0.01,VWS V14.01,2013-09-26 14:45:00,
2013-09-26 10:50:00,68.2,63.2,30.02,NNE,30,0.0,3.0,84,0.00,,,0.01,VWS V14.01,2013-09-26 14:50:00,
2013-09-26 10:55:00,68.3,63.6,30.01,WSW,239,0.0,3.0,85,0.00,,,0.01,VWS V14.01,2013-09-26 14:55:00,
2013-09-26 11:00:00,68.3,63.6,30.01,SW,215,0.0,0.0,85,0.00,,,0.01,VWS V14.01,2013-09-26 15:00:00,
2013-09-26 11:05:00,68.5,63.8,30.01,SSW,198,1.0,4.0,85,0.00,,,0.01,VWS V14.01,2013-09-26 15:05:00,
2013-09-26 11:10:00,69.0,63.6,30.01,SSW,211,0.0,4.0,83,0.00,,,0.01,VWS V14.01,2013-09-26 15:10:00,
2013-09-26 11:15:00,69.6,64.2,30.01,East,88,0.0,4.0,83,0.00,,,0.01,VWS V14.01,2013-09-26 15:15:00,
2013-09-26 11:20:00,70.4,64.3,30.01,SSW,197,0.0,4.0,81,0.00,,,0.01,VWS V14.01,2013-09-26 15:20:00,
2013-09-26 11:25:00,69.9,62.7,30.01,SSW,212,3.0,5.0,78,0.00,,,0.01,VWS V14.01,2013-09-26 15:25:00,
2013-09-26 11:30:00,69.9,63.5,30.01,SSW,194,0.0,1.0,80,0.00,,,0.01,VWS V14.01,2013-09-26 15:30:00,
2013-09-26 11:35:00,70.6,63.0,30.01,SSE,155,2.0,5.0,77,0.00,,OVC013,0.01,VWS V14.01,2013-09-26 15:35:00,
2013-09-26 11:40:00,70.4,62.8,30.02,South,181,1.0,5.0,77,0.00,,OVC013,0.01,VWS V14.01,2013-09-26 15:40:00,
2013-09-26 11:45:00,70.6,65.2,30.02,SE,144,0.0,5.0,83,0.00,,OVC013,0.01,VWS V14.01,2013-09-26 15:45:00,
2013-09-26 11:50:00,71.2,64.4,30.01,SE,132,0.0,5.0,79,0.00,,SCT024,0.01,VWS V14.01,2013-09-26 15:50:00,
2013-09-26 11:55:00,72.0,64.8,30.01,East,98,0.0,5.0,78,0.00,,SCT024,0.01,VWS V14.01,2013-09-26 15:55:00,
2013-09-26 12:00:00,72.1,64.5,30.01,East,101,0.0,0.0,77,0.00,,SCT024,0.01,VWS V14.01,2013-09-26 16:00:00,
2013-09-26 12:05:00,71.5,64.3,30.01,South,185,1.0,3.0,78,0.00,,SCT024,0.01,VWS V14.01,2013-09-26 16:05:00,
2013-09-26 12:10:00,71.0,63.8,30.01,South,185,0.0,3.0,78,0.00,,SCT024,0.01,VWS V14.01,2013-09-26 16:10:00,
2013-09-26 12:15:00,70.9,63.7,30.01,South,185,0.0,3.0,78,0.00,,SCT024,0.01,VWS V14.01,2013-09-26 16:15:00,
2013-09-26 12:20:00,71.7,64.5,30.01,South,184,0.0,3.0,78,0.00,,SCT024,0.01,VWS V14.01,2013-09-26 16:20:00,
2013-09-26 12:25:00,72.1,63.8,30.01,SSW,202,0.0,3.0,75,0.00,,SCT024,0.01,VWS V14.01,2013-09-26 16:25:00,
2013-09-26 12:30:00,71.7,63.4,30.01,SW,218,1.0,5.0,75,0.00,,SCT024,0.01,VWS V14.01,2013-09-26 16:30:00,
2013-09-26 12:35:00,71.3,64.5,30.00,SW,228,0.0,5.0,79,0.00,,BKN024,0.01,VWS V14.01,2013-09-26 16:35:00,
2013-09-26 12:40:00,71.4,64.2,30.00,SW,228,0.0,5.0,78,0.00,,BKN024,0.01,VWS V14.01,2013-09-26 16:40:00,
2013-09-26 12:45:00,71.1,63.9,30.00,SW,228,0.0,5.0,78,0.00,,BKN024,0.01,VWS V14.01,2013-09-26 16:45:00,
2013-09-26 12:50:00,71.1,63.5,30.00,SW,228,1.0,5.0,77,0.00,,BKN024,0.01,VWS V14.01,2013-09-26 16:50:00,
2013-09-26 12:55:00,70.8,63.2,30.00,SW,219,0.0,5.0,77,0.00,,BKN024,0.01,VWS V14.01,2013-09-26 16:55:00,
2013-09-26 13:00:00,71.1,64.3,30.00,SW,219,0.0,1.0,79,0.00,,BKN024,0.01,VWS V14.01,2013-09-26 17:00:00,
2013-09-26 13:05:00,71.3,63.7,30.00,ESE,112,0.0,1.0,77,0.00,,BKN024,0.01,VWS V14.01,2013-09-26 17:05:00,
2013-09-26 13:10:00,71.2,64.0,30.00,SSW,194,0.0,2.0,78,0.00,,BKN024,0.01,VWS V14.01,2013-09-26 17:10:00,
2013-09-26 13:16:00,71.1,63.5,30.00,South,182,0.0,5.0,77,0.00,,BKN024,0.01,VWS V14.01,2013-09-26 17:16:00,
2013-09-26 13:21:00,71.3,64.1,30.00,South,182,0.0,5.0,78,0.00,,BKN024,0.01,VWS V14.01,2013-09-26 17:21:00,
2013-09-26 13:26:00,71.9,65.0,30.00,South,180,0.0,5.0,79,0.00,,BKN024,0.01,VWS V14.01,2013-09-26 17:26:00,
2013-09-26 13:30:00,72.2,65.0,29.99,NE,40,0.0,5.0,78,0.00,,CLR,0.01,VWS V14.01,2013-09-26 17:30:00,
2013-09-26 13:31:00,72.4,65.2,29.99,NNE,26,0.0,1.0,78,0.00,,BKN024,0.01,VWS V14.01,2013-09-26 17:31:00,
2013-09-26 13:36:00,72.4,64.0,29.99,SSE,155,0.0,1.0,75,0.00,,BKN028,0.01,VWS V14.01,2013-09-26 17:36:00,
2013-09-26 13:41:00,72.7,65.4,29.99,SSE,154,0.0,1.0,78,0.00,,BKN028,0.01,VWS V14.01,2013-09-26 17:41:00,
2013-09-26 13:46:00,72.9,64.1,29.99,South,169,0.0,4.0,74,0.00,,BKN028,0.01,VWS V14.01,2013-09-26 17:46:00,
2013-09-26 13:51:00,74.0,65.6,29.99,SSE,167,0.0,4.0,75,0.00,,BKN028,0.01,VWS V14.01,2013-09-26 17:51:00,
2013-09-26 13:56:00,75.5,66.2,29.99,NNE,26,1.0,4.0,73,0.00,,BKN028,0.01,VWS V14.01,2013-09-26 17:56:00,
2013-09-26 14:00:00,76.2,64.9,29.99,North,5,2.0,5.0,68,0.00,,CLR,0.01,VWS V14.01,2013-09-26 18:00:00,
2013-09-26 14:01:00,76.3,65.0,29.99,ESE,121,1.0,3.0,68,0.00,,BKN028,0.01,VWS V14.01,2013-09-26 18:01:00,
2013-09-26 14:06:00,75.6,65.1,29.98,SSE,166,1.0,3.0,70,0.00,,BKN028,0.01,VWS V14.01,2013-09-26 18:06:00,
2013-09-26 14:11:00,75.8,65.7,29.98,ESE,117,0.0,4.0,71,0.00,,BKN028,0.01,VWS V14.01,2013-09-26 18:11:00,
2013-09-26 14:16:00,76.6,66.5,29.98,SSW,196,0.0,4.0,71,0.00,,BKN028,0.01,VWS V14.01,2013-09-26 18:16:00,
2013-09-26 14:21:00,77.4,66.4,29.98,WSW,252,0.0,4.0,69,0.00,,BKN028,0.01,VWS V14.01,2013-09-26 18:21:00,
2013-09-26 14:26:00,76.8,65.9,29.98,SW,224,0.0,4.0,69,0.00,,BKN028,0.01,VWS V14.01,2013-09-26 18:26:00,
2013-09-26 14:30:00,76.4,65.1,29.97,SSE,159,1.0,4.0,68,0.00,,CLR,0.01,VWS V14.01,2013-09-26 18:30:00,
2013-09-26 14:31:00,76.1,65.2,29.97,SSW,198,0.0,3.0,69,0.00,,BKN028,0.01,VWS V14.01,2013-09-26 18:31:00,
2013-09-26 14:36:00,76.2,65.7,29.97,East,83,1.0,3.0,70,0.00,,BKN030,0.01,VWS V14.01,2013-09-26 18:36:00,
2013-09-26 14:41:00,76.4,65.9,29.97,SSE,158,0.0,3.0,70,0.00,,BKN030,0.01,VWS V14.01,2013-09-26 18:41:00,
2013-09-26 14:46:00,77.5,65.3,29.97,SE,134,0.0,3.0,66,0.00,,BKN030,0.01,VWS V14.01,2013-09-26 18:46:00,
2013-09-26 14:51:00,78.5,67.5,29.97,SE,144,0.0,3.0,69,0.00,,BKN030,0.01,VWS V14.01,2013-09-26 18:51:00,
2013-09-26 14:56:00,78.7,66.8,29.97,NE,47,0.0,3.0,67,0.00,,BKN030,0.01,VWS V14.01,2013-09-26 18:56:00,
2013-09-26 15:00:00,78.8,66.1,29.97,SW,233,0.0,5.0,65,0.00,,CLR,0.01,VWS V14.01,2013-09-26 19:00:00,
2013-09-26 15:01:00,78.5,66.6,29.97,WSW,252,0.0,1.0,67,0.00,,BKN030,0.01,VWS V14.01,2013-09-26 19:01:00,
2013-09-26 15:06:00,77.6,67.1,29.96,WSW,249,0.0,1.0,70,0.00,,BKN030,0.01,VWS V14.01,2013-09-26 19:06:00,
2013-09-26 15:11:00,77.6,66.2,29.96,WNW,287,1.0,1.0,68,0.00,,BKN030,0.01,VWS V14.01,2013-09-26 19:11:00,
2013-09-26 15:16:00,78.3,68.1,29.96,WNW,287,0.0,1.0,71,0.00,,BKN030,0.01,VWS V14.01,2013-09-26 19:16:00,
2013-09-26 15:21:00,79.7,66.0,29.96,WSW,241,0.0,1.0,63,0.00,,BKN030,0.01,VWS V14.01,2013-09-26 19:21:00,
2013-09-26 15:26:00,80.0,65.8,29.96,NNE,32,0.0,2.0,62,0.00,,BKN030,0.01,VWS V14.01,2013-09-26 19:26:00,
2013-09-26 15:30:00,80.5,66.8,29.96,NNE,32,0.0,2.0,63,0.00,,CLR,0.01,VWS V14.01,2013-09-26 19:30:00,
2013-09-26 15:31:00,80.8,67.0,29.96,NNE,30,0.0,2.0,63,0.00,,BKN030,0.01,VWS V14.01,2013-09-26 19:31:00,
2013-09-26 15:36:00,81.2,67.9,29.96,WSW,240,0.0,2.0,64,0.00,,BKN032,0.01,VWS V14.01,2013-09-26 19:36:00,
2013-09-26 15:41:00,81.9,68.1,29.96,WNW,289,0.0,4.0,63,0.00,,BKN032,0.01,VWS V14.01,2013-09-26 19:41:00,
2013-09-26 15:46:00,81.4,67.6,29.96,SW,215,0.0,4.0,63,0.00,,BKN032,0.01,VWS V14.01,2013-09-26 19:46:00,
2013-09-26 15:51:00,81.1,68.2,29.96,SSE,150,0.0,4.0,65,0.00,,BKN032,0.01,VWS V14.01,2013-09-26 19:51:00,
2013-09-26 15:56:00,80.8,66.1,29.96,SSW,203,1.0,4.0,61,0.00,,BKN032,0.01,VWS V14.01,2013-09-26 19:56:00,
2013-09-26 16:00:00,79.9,65.7,29.96,SSW,205,0.0,4.0,62,0.00,,CLR,0.01,VWS V14.01,2013-09-26 20:00:00,
2013-09-26 16:01:00,79.4,65.3,29.96,SSW,195,1.0,4.0,62,0.00,,BKN032,0.01,VWS V14.01,2013-09-26 20:01:00,
2013-09-26 16:06:00,79.6,65.4,29.96,SSE,149,0.0,4.0,62,0.00,,BKN032,0.01,VWS V14.01,2013-09-26 20:06:00,
2013-09-26 16:11:00,80.2,66.0,29.95,SSE,149,0.0,4.0,62,0.00,,BKN032,0.01,VWS V14.01,2013-09-26 20:11:00,
2013-09-26 16:16:00,80.1,67.3,29.96,SSE,149,0.0,4.0,65,0.00,,BKN032,0.01,VWS V14.01,2013-09-26 20:16:00,
2013-09-26 16:21:00,80.4,66.7,29.96,SSE,149,0.0,4.0,63,0.00,,BKN032,0.01,VWS V14.01,2013-09-26 20:21:00,
2013-09-26 16:26:00,80.4,65.7,29.96,SSW,205,0.0,5.0,61,0.00,,BKN032,0.01,VWS V14.01,2013-09-26 20:26:00,
2013-09-26 16:30:00,79.7,65.5,29.96,WSW,243,0.0,5.0,62,0.00,,CLR,0.01,VWS V14.01,2013-09-26 20:30:00,
2013-09-26 16:31:00,79.4,65.7,29.96,SW,222,3.0,3.0,63,0.00,,BKN032,0.01,VWS V14.01,2013-09-26 20:31:00,
2013-09-26 16:36:00,78.6,66.7,29.96,SW,215,0.0,3.0,67,0.00,,BKN032,0.01,VWS V14.01,2013-09-26 20:36:00,
2013-09-26 16:41:00,78.6,67.2,29.96,North,5,0.0,3.0,68,0.00,,BKN032,0.01,VWS V14.01,2013-09-26 20:41:00,
2013-09-26 16:46:00,78.4,67.0,29.96,North,5,0.0,3.0,68,0.00,,BKN032,0.01,VWS V14.01,2013-09-26 20:46:00,
2013-09-26 16:51:00,78.3,67.7,29.96,North,5,0.0,3.0,70,0.00,,BKN038,0.01,VWS V14.01,2013-09-26 20:51:00,
2013-09-26 16:56:00,77.5,67.8,29.96,North,5,0.0,3.0,72,0.00,,BKN038,0.01,VWS V14.01,2013-09-26 20:56:00,
2013-09-26 17:00:00,76.8,68.3,29.96,North,5,0.0,3.0,75,0.00,,CLR,0.01,VWS V14.01,2013-09-26 21:00:00,
2013-09-26 17:01:00,76.6,68.1,29.96,North,5,0.0,0.0,75,0.00,,BKN038,0.01,VWS V14.01,2013-09-26 21:01:00,
2013-09-26 17:06:00,76.8,67.5,29.96,North,5,0.0,0.0,73,0.00,,BKN038,0.01,VWS V14.01,2013-09-26 21:06:00,
2013-09-26 17:11:00,77.5,67.4,29.96,North,5,0.0,1.0,71,0.00,,BKN038,0.01,VWS V14.01,2013-09-26 21:11:00,
2013-09-26 17:16:00,78.2,65.5,29.96,North,5,0.0,1.0,65,0.00,,BKN038,0.01,VWS V14.01,2013-09-26 21:16:00,
2013-09-26 17:21:00,78.9,65.2,29.96,North,5,0.0,1.0,63,0.00,,BKN038,0.01,VWS V14.01,2013-09-26 21:21:00,
2013-09-26 17:26:00,78.4,66.1,29.96,North,5,0.0,1.0,66,0.00,,BKN038,0.01,VWS V14.01,2013-09-26 21:26:00,
2013-09-26 17:30:00,78.5,65.8,29.96,North,5,0.0,1.0,65,0.00,,CLR,0.01,VWS V14.01,2013-09-26 21:30:00,
2013-09-26 17:31:00,78.7,67.7,29.96,North,5,0.0,0.0,69,0.00,,BKN038,0.01,VWS V14.01,2013-09-26 21:31:00,
2013-09-26 17:36:00,79.3,66.1,29.96,North,5,0.0,1.0,64,0.00,,SCT038,0.01,VWS V14.01,2013-09-26 21:36:00,
2013-09-26 17:41:00,79.6,68.1,29.96,North,5,0.0,1.0,68,0.00,,SCT038,0.01,VWS V14.01,2013-09-26 21:41:00,
2013-09-26 17:46:00,79.5,68.4,29.96,North,5,0.0,1.0,69,0.00,,SCT038,0.01,VWS V14.01,2013-09-26 21:46:00,
2013-09-26 17:51:00,79.4,68.8,29.96,North,5,0.0,1.0,70,0.00,,SCT038,0.01,VWS V14.01,2013-09-26 21:51:00,
2013-09-26 17:56:00,79.1,68.1,29.96,North,5,0.0,1.0,69,0.00,,SCT038,0.01,VWS V14.01,2013-09-26 21:56:00,
2013-09-26 18:00:00,78.9,68.3,29.96,North,5,0.0,1.0,70,0.00,,CLR,0.01,VWS V14.01,2013-09-26 22:00:00,
2013-09-26 18:01:00,78.8,68.2,29.96,North,5,0.0,0.0,70,0.00,,SCT038,0.01,VWS V14.01,2013-09-26 22:01:00,
2013-09-26 18:06:00,78.7,68.5,29.96,North,5,0.0,0.0,71,0.00,,SCT038,0.01,VWS V14.01,2013-09-26 22:06:00,
2013-09-26 18:11:00,78.8,68.6,29.96,North,5,0.0,0.0,71,0.00,,SCT038,0.01,VWS V14.01,2013-09-26 22:11:00,
2013-09-26 18:16:00,78.5,68.7,29.96,North,5,0.0,0.0,72,0.00,,SCT038,0.01,VWS V14.01,2013-09-26 22:16:00,
2013-09-26 18:21:00,77.9,68.9,29.96,North,5,0.0,0.0,74,0.00,,SCT038,0.01,VWS V14.01,2013-09-26 22:21:00,
2013-09-26 18:26:00,78.2,69.2,29.96,North,5,0.0,0.0,74,0.00,,SCT038,0.01,VWS V14.01,2013-09-26 22:26:00,
2013-09-26 18:30:00,78.4,69.4,29.96,North,5,0.0,0.0,74,0.00,,CLR,0.01,VWS V14.01,2013-09-26 22:30:00,
2013-09-26 18:31:00,78.3,69.3,29.96,North,5,0.0,0.0,74,0.00,,SCT038,0.01,VWS V14.01,2013-09-26 22:31:00,
2013-09-26 18:36:00,77.6,69.1,29.96,North,5,0.0,0.0,75,0.00,,SCT048,0.01,VWS V14.01,2013-09-26 22:36:00,
2013-09-26 18:41:00,76.6,68.5,29.97,North,5,0.0,0.0,76,0.00,,SCT048,0.01,VWS V14.01,2013-09-26 22:41:00,
2013-09-26 18:46:00,75.3,68.7,29.97,North,5,0.0,0.0,80,0.00,,SCT048,0.01,VWS V14.01,2013-09-26 22:46:00,
2013-09-26 18:51:00,74.7,68.5,29.97,North,5,0.0,0.0,81,0.00,,SCT048,0.01,VWS V14.01,2013-09-26 22:51:00,
2013-09-26 18:56:00,74.2,68.0,29.97,North,5,0.0,0.0,81,0.00,,SCT048,0.01,VWS V14.01,2013-09-26 22:56:00,
2013-09-26 19:00:00,74.1,67.9,29.97,North,5,0.0,0.0,81,0.00,,CLR,0.01,VWS V14.01,2013-09-26 23:00:00,
2013-09-26 19:01:00,73.9,68.1,29.97,North,5,0.0,0.0,82,0.00,,SCT048,0.01,VWS V14.01,2013-09-26 23:01:00,
2013-09-26 19:06:00,73.1,67.6,29.97,North,5,0.0,0.0,83,0.00,,SCT048,0.01,VWS V14.01,2013-09-26 23:06:00,
2013-09-26 19:11:00,72.2,67.4,29.97,North,5,0.0,0.0,85,0.00,,SCT048,0.01,VWS V14.01,2013-09-26 23:11:00,
2013-09-26 19:16:00,71.8,67.4,29.97,North,5,0.0,0.0,86,0.00,,SCT048,0.01,VWS V14.01,2013-09-26 23:16:00,
2013-09-26 19:21:00,71.5,66.8,29.98,North,5,0.0,0.0,85,0.00,,SCT048,0.01,VWS V14.01,2013-09-26 23:21:00,
2013-09-26 19:26:00,71.2,66.8,29.98,North,5,0.0,0.0,86,0.00,,SCT048,0.01,VWS V14.01,2013-09-26 23:26:00,
2013-09-26 19:30:00,71.1,66.7,29.98,North,5,0.0,0.0,86,0.00,,CLR,0.01,VWS V14.01,2013-09-26 23:30:00,
2013-09-26 19:31:00,71.0,66.6,29.98,North,5,0.0,0.0,86,0.00,,SCT048,0.01,VWS V14.01,2013-09-26 23:31:00,
2013-09-26 19:36:00,70.6,66.2,29.98,North,5,0.0,0.0,86,0.00,,CLR,0.01,VWS V14.01,2013-09-26 23:36:00,
2013-09-26 19:41:00,69.9,65.9,29.98,North,5,0.0,0.0,87,0.00,,CLR,0.01,VWS V14.01,2013-09-26 23:41:00,
2013-09-26 19:46:00,69.5,65.8,29.98,North,5,0.0,0.0,88,0.00,,CLR,0.01,VWS V14.01,2013-09-26 23:46:00,
2013-09-26 19:51:00,69.0,65.9,29.98,North,5,0.0,0.0,90,0.00,,CLR,0.01,VWS V14.01,2013-09-26 23:51:00,
2013-09-26 19:56:00,68.7,65.7,29.98,North,5,0.0,0.0,90,0.00,,CLR,0.01,VWS V14.01,2013-09-26 23:56:00,
2013-09-26 20:00:00,68.6,65.6,29.98,North,5,0.0,0.0,90,0.00,,CLR,0.01,VWS V14.01,2013-09-27 00:00:00,
2013-09-26 20:01:00,68.5,65.8,29.98,North,5,0.0,0.0,91,0.00,,CLR,0.01,VWS V14.01,2013-09-27 00:01:00,
2013-09-26 20:06:00,68.4,65.7,29.98,North,5,0.0,0.0,91,0.00,,CLR,0.01,VWS V14.01,2013-09-27 00:06:00,
2013-09-26 20:11:00,68.2,65.2,29.98,North,5,0.0,0.0,90,0.00,,CLR,0.01,VWS V14.01,2013-09-27 00:11:00,
2013-09-26 20:16:00,67.9,65.2,29.99,North,5,0.0,0.0,91,0.00,,CLR,0.01,VWS V14.01,2013-09-27 00:16:00,
2013-09-26 20:21:00,67.7,65.3,29.99,North,5,0.0,0.0,92,0.00,,CLR,0.01,VWS V14.01,2013-09-27 00:21:00,
2013-09-26 20:26:00,67.5,65.1,29.99,North,5,0.0,0.0,92,0.00,,CLR,0.01,VWS V14.01,2013-09-27 00:26:00,
2013-09-26 20:30:00,67.5,65.4,29.99,North,5,0.0,0.0,93,0.00,,CLR,0.01,VWS V14.01,2013-09-27 00:30:00,
2013-09-26 20:31:00,67.4,65.3,29.99,North,5,0.0,0.0,93,0.00,,CLR,0.01,VWS V14.01,2013-09-27 00:31:00,
2013-09-26 20:36:00,67.4,65.3,29.99,North,5,0.0,0.0,93,0.00,,CLR,0.01,VWS V14.01,2013-09-27 00:36:00,
2013-09-26 20:41:00,67.4,65.3,30.00,North,5,0.0,0.0,93,0.00,,CLR,0.01,VWS V14.01,2013-09-27 00:41:00,
2013-09-26 20:46:00,67.3,65.2,30.00,North,5,0.0,0.0,93,0.00,,CLR,0.01,VWS V14.01,2013-09-27 00:46:00,
2013-09-26 20:51:00,67.2,65.1,30.00,North,5,0.0,0.0,93,0.00,,CLR,0.01,VWS V14.01,2013-09-27 00:51:00,
2013-09-26 20:56:00,67.2,65.1,30.00,North,5,0.0,0.0,93,0.00,,CLR,0.01,VWS V14.01,2013-09-27 00:56:00,
2013-09-26 21:00:00,67.2,65.1,30.00,North,5,0.0,0.0,93,0.00,,CLR,0.01,VWS V14.01,2013-09-27 01:00:00,
2013-09-26 21:01:00,67.2,65.1,30.00,North,5,0.0,0.0,93,0.00,,CLR,0.01,VWS V14.01,2013-09-27 01:01:00,
2013-09-26 21:06:00,67.1,65.3,30.00,North,5,0.0,0.0,94,0.00,,CLR,0.01,VWS V14.01,2013-09-27 01:06:00,
2013-09-26 21:11:00,67.1,65.3,30.00,North,5,0.0,0.0,94,0.00,,CLR,0.01,VWS V14.01,2013-09-27 01:11:00,
2013-09-26 21:16:00,66.9,65.1,30.01,North,5,0.0,0.0,94,0.00,,CLR,0.01,VWS V14.01,2013-09-27 01:16:00,
2013-09-26 21:21:00,66.8,65.0,30.01,North,5,0.0,0.0,94,0.00,,CLR,0.01,VWS V14.01,2013-09-27 01:21:00,
2013-09-26 21:26:00,66.7,64.9,30.01,North,5,0.0,0.0,94,0.00,,CLR,0.01,VWS V14.01,2013-09-27 01:26:00,
2013-09-26 21:30:00,66.7,64.9,30.01,North,5,0.0,0.0,94,0.00,,CLR,0.01,VWS V14.01,2013-09-27 01:30:00,
2013-09-26 21:31:00,66.7,64.9,30.01,North,5,0.0,0.0,94,0.00,,CLR,0.01,VWS V14.01,2013-09-27 01:31:00,
2013-09-26 21:36:00,66.4,64.6,30.01,North,5,0.0,0.0,94,0.00,,BKN039,0.01,VWS V14.01,2013-09-27 01:36:00,
2013-09-26 21:41:00,66.3,64.8,30.01,North,5,0.0,0.0,95,0.00,,BKN039,0.01,VWS V14.01,2013-09-27 01:41:00,
2013-09-26 21:46:00,66.3,64.8,30.02,North,5,0.0,0.0,95,0.00,,BKN039,0.01,VWS V14.01,2013-09-27 01:46:00,
2013-09-26 21:51:00,66.3,64.8,30.02,North,5,0.0,0.0,95,0.00,,BKN039,0.01,VWS V14.01,2013-09-27 01:51:00,
2013-09-26 21:56:00,66.3,64.8,30.02,North,5,0.0,0.0,95,0.00,,BKN039,0.01,VWS V14.01,2013-09-27 01:56:00,
2013-09-26 22:00:00,66.3,64.8,30.02,North,5,0.0,0.0,95,0.00,,CLR,0.01,VWS V14.01,2013-09-27 02:00:00,
2013-09-26 22:01:00,66.2,64.7,30.02,North,5,0.0,0.0,95,0.00,,BKN039,0.01,VWS V14.01,2013-09-27 02:01:00,
2013-09-26 22:06:00,66.2,64.7,30.02,North,5,0.0,0.0,95,0.00,,BKN039,0.01,VWS V14.01,2013-09-27 02:06:00,
2013-09-26 22:11:00,66.3,65.1,30.02,North,5,0.0,0.0,96,0.00,,BKN039,0.01,VWS V14.01,2013-09-27 02:11:00,
2013-09-26 22:16:00,66.3,65.1,30.02,North,5,0.0,0.0,96,0.00,,BKN039,0.01,VWS V14.01,2013-09-27 02:16:00,
2013-09-26 22:21:00,66.3,65.1,30.03,North,5,0.0,0.0,96,0.00,,BKN039,0.01,VWS V14.01,2013-09-27 02:21:00,
2013-09-26 22:26:00,66.4,65.2,30.03,North,5,0.0,0.0,96,0.00,,BKN039,0.01,VWS V14.01,2013-09-27 02:26:00,
2013-09-26 22:30:00,66.4,65.2,30.03,North,5,0.0,0.0,96,0.00,,CLR,0.01,VWS V14.01,2013-09-27 02:30:00,
2013-09-26 22:31:00,66.4,65.2,30.03,North,5,0.0,0.0,96,0.00,,BKN039,0.01,VWS V14.01,2013-09-27 02:31:00,
2013-09-26 22:36:00,66.4,65.2,30.03,North,5,0.0,0.0,96,0.00,,OVC049,0.01,VWS V14.01,2013-09-27 02:36:00,
2013-09-26 22:41:00,66.4,65.2,30.03,North,5,0.0,0.0,96,0.00,,OVC049,0.01,VWS V14.01,2013-09-27 02:41:00,
2013-09-26 22:46:00,66.3,65.1,30.03,North,5,0.0,0.0,96,0.00,,OVC049,0.01,VWS V14.01,2013-09-27 02:46:00,
2013-09-26 22:51:00,66.3,65.1,30.03,North,5,0.0,0.0,96,0.00,,OVC049,0.01,VWS V14.01,2013-09-27 02:51:00,
2013-09-26 22:56:00,66.3,65.1,30.03,North,5,0.0,0.0,96,0.00,,OVC049,0.01,VWS V14.01,2013-09-27 02:56:00,
2013-09-26 23:00:00,66.3,65.1,30.03,North,5,0.0,0.0,96,0.00,,CLR,0.01,VWS V14.01,2013-09-27 03:00:00,
2013-09-26 23:01:00,66.3,65.1,30.03,North,5,0.0,0.0,96,0.00,,OVC049,0.01,VWS V14.01,2013-09-27 03:01:00,
2013-09-26 23:06:00,66.3,65.1,30.04,North,5,0.0,0.0,96,0.00,,OVC049,0.01,VWS V14.01,2013-09-27 03:06:00,
2013-09-26 23:11:00,66.3,65.1,30.04,North,5,0.0,0.0,96,0.00,,OVC049,0.01,VWS V14.01,2013-09-27 03:11:00,
2013-09-26 23:16:00,66.3,65.1,30.04,North,5,0.0,0.0,96,0.00,,OVC049,0.01,VWS V14.01,2013-09-27 03:16:00,
2013-09-26 23:21:00,66.3,65.1,30.04,North,5,0.0,0.0,96,0.00,,OVC049,0.01,VWS V14.01,2013-09-27 03:21:00,
2013-09-26 23:26:00,66.3,65.1,30.04,North,5,0.0,0.0,96,0.00,,OVC049,0.01,VWS V14.01,2013-09-27 03:26:00,
2013-09-26 23:30:00,66.3,65.1,30.04,North,5,0.0,0.0,96,0.00,,CLR,0.01,VWS V14.01,2013-09-27 03:30:00,
2013-09-26 23:31:00,66.3,65.1,30.04,North,5,0.0,0.0,96,0.00,,OVC049,0.01,VWS V14.01,2013-09-27 03:31:00,
2013-09-26 23:36:00,66.3,65.1,30.04,North,5,0.0,0.0,96,0.00,,OVC035,0.01,VWS V14.01,2013-09-27 03:36:00,
2013-09-26 23:41:00,66.3,65.1,30.04,North,5,0.0,0.0,96,0.00,,OVC035,0.01,VWS V14.01,2013-09-27 03:41:00,
2013-09-26 23:46:00,66.3,65.1,30.04,North,5,0.0,0.0,96,0.00,,OVC035,0.01,VWS V14.01,2013-09-27 03:46:00,
2013-09-26 23:51:00,66.3,65.1,30.04,North,5,0.0,0.0,96,0.00,,OVC035,0.01,VWS V14.01,2013-09-27 03:51:00,
2013-09-26 23:56:00,66.3,65.1,30.04,North,5,0.0,0.0,96,0.00,,OVC035,0.01,VWS V14.01,2013-09-27 03:56:00,